This is the latest recevied weather packets stored in our database for station/object KC3WWU. If no packets are shown the sender has not sent any weather packets the latest 10 day(s).
| Time | Temp. | Humidity | Pressure | Rain* | Wind** | Luminosity | Snow |
|---|---|---|---|---|---|---|---|
| 1778073607 | 12.22° C | 99% | 1004.2 hPa | 0 mm | - | 36 W/m² | - |
| 1778073303 | 12.22° C | 99% | 1004.3 hPa | 1.78 mm | - | 36 W/m² | - |
| 1778072995 | 12.22° C | 99% | 1004.9 hPa | 1.78 mm | - | 44 W/m² | - |
| 1778072691 | 12.22° C | 99% | 1004.8 hPa | 1.27 mm | - | 59 W/m² | - |
| 1778072389 | 12.22° C | 99% | 1004.5 hPa | 1.27 mm | - | 40 W/m² | - |
| 1778072087 | 12.22° C | 99% | 1004.8 hPa | 1.27 mm | - | 59 W/m² | - |
| 1778071785 | 12.22° C | 99% | 1004.7 hPa | 0 mm | - | 33 W/m² | - |
| 1778071482 | 12.22° C | 99% | 1004.8 hPa | 0 mm | - | 40 W/m² | - |
| 1778071180 | 12.22° C | 99% | 1004.8 hPa | 0 mm | - | 34 W/m² | - |
| 1778070877 | 12.22° C | 99% | 1004.9 hPa | 0 mm | - | 44 W/m² | - |
| 1778070575 | 12.22° C | 99% | 1004.7 hPa | 0 mm | - | 27 W/m² | - |
| 1778070271 | 12.22° C | 99% | 1004.9 hPa | 0 mm | - | 24 W/m² | - |
| 1778069970 | 12.22° C | 99% | 1004.8 hPa | 0 mm | - | 38 W/m² | - |
| 1778069666 | 12.22° C | 99% | 1004.8 hPa | 0 mm | - | 24 W/m² | - |
| 1778069364 | 12.22° C | 99% | 1004.8 hPa | 0 mm | - | 13 W/m² | - |
| 1778069061 | 12.22° C | 99% | 1004.7 hPa | 0 mm | - | 32 W/m² | - |
| 1778068758 | 12.22° C | 99% | 1004.8 hPa | 0 mm | - | 46 W/m² | - |
| 1778068456 | 12.22° C | 99% | 1004.5 hPa | 0 mm | - | 99 W/m² | - |
| 1778068154 | 11.67° C | 99% | 1004.7 hPa | 0 mm | - | 56 W/m² | - |
| 1778067851 | 11.67° C | 99% | 1004.7 hPa | 1.78 mm | - | 31 W/m² | - |
| 1778067550 | 11.67° C | 99% | 1004.8 hPa | 1.78 mm | - | 20 W/m² | - |
| 1778067247 | 11.67° C | 99% | 1005.1 hPa | 1.27 mm | - | 18 W/m² | - |
| 1778066944 | 11.67° C | 99% | 1005.1 hPa | 3.05 mm | - | 10 W/m² | - |
| 1778066642 | 11.67° C | 99% | 1005.1 hPa | 3.05 mm | - | 8 W/m² | - |
| 1778066338 | 11.67° C | 99% | 1005.1 hPa | 1.27 mm | - | 6 W/m² | - |
* Rain latest hour (hover to see other rain measurements)
** Current wind speed in m/s (hover to see current wind gust speed)